TimeCST,TemperatureF,Dew PointF,Humidity,Sea Level PressureIn,VisibilityMPH,Wind Direction,Wind SpeedMPH,Gust SpeedMPH,PrecipitationIn,Events,Conditions,WindDirDegrees,DateUTC
12:23 AM,42.8,39.2,87,30.17,5.0,NNW,6.9,-,0.02,Rain,Light Rain,340,2013-01-03 06:23:00
1:14 AM,41.0,39.2,93,30.19,5.0,NNW,4.6,-,0.02,Rain,Rain,340,2013-01-03 07:14:00
1:56 AM,41.0,39.0,93,30.19,5.0,NNW,6.9,-,0.07,Rain,Rain,340,2013-01-03 07:56:00
2:17 AM,41.0,39.2,93,30.19,4.0,NNW,6.9,-,0.03,Rain,Rain,330,2013-01-03 08:17:00
2:30 AM,41.0,39.2,93,30.19,4.0,NNW,6.9,-,0.04,Rain,Rain,340,2013-01-03 08:30:00
2:56 AM,41.0,39.0,93,30.19,5.0,NNW,9.2,-,0.06,Rain,Rain,340,2013-01-03 08:56:00
3:24 AM,41.0,39.2,93,30.20,5.0,NNW,6.9,-,0.03,Rain,Rain,340,2013-01-03 09:24:00
3:36 AM,41.0,39.2,93,30.19,5.0,North,4.6,-,0.04,Rain,Rain,350,2013-01-03 09:36:00
3:56 AM,41.0,39.0,93,30.18,5.0,North,4.6,-,0.06,Rain,Rain,350,2013-01-03 09:56:00
4:19 AM,41.0,39.2,93,30.18,5.0,NNW,6.9,-,0.02,Rain,Light Rain,330,2013-01-03 10:19:00
4:56 AM,39.9,37.9,93,30.19,6.0,NNW,9.2,-,0.04,Rain,Light Rain,340,2013-01-03 10:56:00
5:56 AM,39.9,37.9,93,30.22,6.0,NW,4.6,-,0.04,Rain,Light Rain,310,2013-01-03 11:56:00
6:35 AM,39.2,37.4,93,30.21,7.0,North,5.8,-,0.02,Rain,Light Rain,350,2013-01-03 12:35:00
6:56 AM,39.9,37.9,93,30.20,6.0,Calm,Calm,-,0.03,Rain,Light Rain,0,2013-01-03 12:56:00
7:20 AM,39.2,37.4,93,30.23,4.0,NNW,6.9,-,0.01,Rain,Light Rain,330,2013-01-03 13:20:00
7:56 AM,39.9,37.9,93,30.24,5.0,Variable,3.5,-,0.02,,Overcast,0,2013-01-03 13:56:00
8:56 AM,39.9,37.0,89,30.27,6.0,NNW,9.2,-,N/A,,Overcast,330,2013-01-03 14:56:00
9:23 AM,41.0,37.4,87,30.26,6.0,NNW,5.8,-,N/A,,Overcast,340,2013-01-03 15:23:00
9:32 AM,39.2,37.4,93,30.27,6.0,WNW,5.8,-,N/A,,Overcast,300,2013-01-03 15:32:00
9:56 AM,39.9,37.0,89,30.28,6.0,NNW,8.1,-,N/A,,Overcast,330,2013-01-03 15:56:00
10:49 AM,41.0,37.4,87,30.27,9.0,NNW,9.2,-,N/A,,Overcast,340,2013-01-03 16:49:00
10:56 AM,41.0,37.0,86,30.27,9.0,North,9.2,-,N/A,,Overcast,350,2013-01-03 16:56:00
11:56 AM,42.1,36.0,79,30.24,10.0,NNW,8.1,-,N/A,,Mostly Cloudy,340,2013-01-03 17:56:00
12:56 PM,44.1,35.1,71,30.22,10.0,NNW,8.1,-,N/A,,Scattered Clouds,340,2013-01-03 18:56:00
1:56 PM,46.0,35.1,66,30.23,10.0,NNW,6.9,-,N/A,,Partly Cloudy,330,2013-01-03 19:56:00
2:56 PM,46.9,33.1,59,30.24,10.0,NNW,8.1,-,N/A,,Clear,340,2013-01-03 20:56:00
3:56 PM,46.0,30.9,56,30.26,10.0,NNW,9.2,-,N/A,,Clear,340,2013-01-03 21:56:00
4:56 PM,43.0,32.0,65,30.27,10.0,NNW,4.6,-,N/A,,Clear,330,2013-01-03 22:56:00
5:56 PM,41.0,32.0,70,30.29,10.0,NNW,5.8,-,N/A,,Clear,340,2013-01-03 23:56:00
6:56 PM,39.0,30.0,70,30.31,10.0,NNW,5.8,-,N/A,,Clear,330,2013-01-04 00:56:00
7:56 PM,37.9,28.0,68,30.33,10.0,NNW,4.6,-,N/A,,Clear,340,2013-01-04 01:56:00
8:56 PM,37.0,28.0,70,30.35,10.0,NNW,6.9,-,N/A,,Clear,340,2013-01-04 02:56:00
9:56 PM,36.0,27.0,70,30.34,10.0,North,4.6,-,N/A,,Clear,360,2013-01-04 03:56:00
10:56 PM,36.0,27.0,70,30.34,10.0,North,4.6,-,N/A,,Clear,360,2013-01-04 04:56:00
11:56 PM,35.1,27.0,72,30.33,10.0,North,6.9,-,N/A,,Clear,350,2013-01-04 05:56:00